N337SK KAKO-KLXV

Flight info

Callsign N337SK
Flight time N/A
Altitude 16500
Route AKO V8 DVV V328 SKEED
Aircraft C337/L-VGDW/C

Departure

Time 2026-04-30 01:26
Airport Colorado Plains Regional Airport (KAKO)

Arrival

Time N/A
Airport Lake County Airport (KLXV)
Time Latitude Longitude Altitude Speed Heading
2026-04-30 01:22 40.17254 -103.20993 4717 ft 0 kts 351°
2026-04-30 01:23 40.17255 -103.21018 4717 ft 5 kts 234°
2026-04-30 01:23 40.17211 -103.21067 4717 ft 10 kts 219°
2026-04-30 01:24 40.17148 -103.21115 4717 ft 11 kts 203°
2026-04-30 01:24 40.17112 -103.21154 4717 ft 6 kts 275°
2026-04-30 01:24 40.17114 -103.21159 4717 ft 0 kts 296°
2026-04-30 01:25 40.17147 -103.21235 4717 ft 30 kts 300°
2026-04-30 01:25 40.17335 -103.21670 4718 ft 77 kts 299°
2026-04-30 01:25 40.17645 -103.22394 4733 ft 101 kts 301°
2026-04-30 01:25 40.18008 -103.23193 4852 ft 102 kts 301°
2026-04-30 01:26 40.18426 -103.24046 4940 ft 119 kts 303°
2026-04-30 01:26 40.18845 -103.24948 5291 ft 108 kts 291°
2026-04-30 01:26 40.18886 -103.25575 5531 ft 103 kts 263°
2026-04-30 01:26 40.18768 -103.26474 5839 ft 99 kts 259°
2026-04-30 01:27 40.18639 -103.27355 6106 ft 99 kts 258°
2026-04-30 01:27 40.18253 -103.28419 6445 ft 99 kts 223°
2026-04-30 01:27 40.17917 -103.28817 6613 ft 99 kts 220°
2026-04-30 01:27 40.17395 -103.29401 6860 ft 99 kts 219°
2026-04-30 01:28 40.16867 -103.29987 7105 ft 100 kts 220°
2026-04-30 01:28 40.16337 -103.30574 7348 ft 101 kts 220°
2026-04-30 01:28 40.15801 -103.31167 7592 ft 101 kts 220°
2026-04-30 01:28 40.15264 -103.31762 7834 ft 101 kts 220°
2026-04-30 01:29 40.14727 -103.32354 8066 ft 101 kts 220°
2026-04-30 01:29 40.14187 -103.32949 8296 ft 102 kts 220°
2026-04-30 01:29 40.13646 -103.33547 8515 ft 103 kts 220°
2026-04-30 01:29 40.13096 -103.34154 8725 ft 104 kts 220°
2026-04-30 01:30 40.12691 -103.34924 8935 ft 104 kts 251°
2026-04-30 01:30 40.12478 -103.35827 9151 ft 104 kts 256°
2026-04-30 01:30 40.12297 -103.36742 9367 ft 104 kts 257°
2026-04-30 01:30 40.12127 -103.37657 9582 ft 104 kts 258°
2026-04-30 01:31 40.11962 -103.38570 9793 ft 103 kts 259°
2026-04-30 01:31 40.11800 -103.39485 10003 ft 103 kts 259°
2026-04-30 01:31 40.11639 -103.40396 10211 ft 103 kts 259°
2026-04-30 01:31 40.11478 -103.41307 10413 ft 103 kts 260°
2026-04-30 01:32 40.11318 -103.42215 10613 ft 103 kts 261°
2026-04-30 01:32 40.11158 -103.43124 10811 ft 102 kts 261°
2026-04-30 01:32 40.10999 -103.44028 11007 ft 102 kts 261°
2026-04-30 01:32 40.10840 -103.44932 11209 ft 101 kts 261°
2026-04-30 01:33 40.10683 -103.45820 11413 ft 100 kts 262°
2026-04-30 01:33 40.10528 -103.46701 11606 ft 99 kts 262°
2026-04-30 01:33 40.10374 -103.47577 11794 ft 99 kts 262°
2026-04-30 01:33 40.10222 -103.48438 11976 ft 99 kts 263°
2026-04-30 01:34 40.10068 -103.49308 12158 ft 98 kts 263°
2026-04-30 01:34 40.09914 -103.50184 12342 ft 97 kts 263°
2026-04-30 01:34 40.09761 -103.51044 12522 ft 97 kts 263°
2026-04-30 01:34 40.09614 -103.51880 12696 ft 96 kts 263°
2026-04-30 01:35 40.09464 -103.52728 12863 ft 96 kts 263°
2026-04-30 01:35 40.09310 -103.53599 13010 ft 98 kts 262°
2026-04-30 01:35 40.09159 -103.54456 13167 ft 98 kts 262°
2026-04-30 01:35 40.09003 -103.55331 13332 ft 98 kts 262°
2026-04-30 01:36 40.08850 -103.56192 13493 ft 97 kts 262°
2026-04-30 01:36 40.08701 -103.57034 13648 ft 96 kts 262°
2026-04-30 01:36 40.08551 -103.57880 13805 ft 95 kts 262°
2026-04-30 01:36 40.08402 -103.58719 13957 ft 95 kts 262°
2026-04-30 01:37 40.08254 -103.59552 14107 ft 94 kts 262°
2026-04-30 01:37 40.08107 -103.60381 14257 ft 93 kts 262°
2026-04-30 01:37 40.07961 -103.61206 14408 ft 93 kts 262°
2026-04-30 01:37 40.07815 -103.62024 14558 ft 92 kts 262°
2026-04-30 01:38 40.07671 -103.62834 14705 ft 91 kts 262°
2026-04-30 01:38 40.07528 -103.63641 14850 ft 91 kts 262°
2026-04-30 01:38 40.07385 -103.64442 14993 ft 90 kts 262°
2026-04-30 01:38 40.07244 -103.65233 15133 ft 89 kts 262°
2026-04-30 01:39 40.07105 -103.66017 15273 ft 88 kts 262°
2026-04-30 01:39 40.06964 -103.66802 15395 ft 88 kts 262°
2026-04-30 01:39 40.06825 -103.67574 15529 ft 87 kts 262°
2026-04-30 01:39 40.06688 -103.68347 15664 ft 86 kts 262°
2026-04-30 01:40 40.06552 -103.69110 15784 ft 86 kts 262°
2026-04-30 01:40 40.06417 -103.69871 15906 ft 85 kts 262°
2026-04-30 01:40 40.06282 -103.70625 16029 ft 85 kts 262°
2026-04-30 01:40 40.06148 -103.71372 16146 ft 85 kts 262°
2026-04-30 01:41 40.06016 -103.72118 16259 ft 84 kts 262°
2026-04-30 01:41 40.05886 -103.72858 16385 ft 83 kts 262°
2026-04-30 01:41 40.05753 -103.73588 16503 ft 83 kts 262°
2026-04-30 01:41 40.05622 -103.74317 16630 ft 82 kts 262°
2026-04-30 01:42 40.05489 -103.75053 16684 ft 88 kts 262°
2026-04-30 01:42 40.05345 -103.75883 16675 ft 98 kts 261°
2026-04-30 01:42 40.05178 -103.76816 16613 ft 112 kts 261°
2026-04-30 01:42 40.04993 -103.77841 16584 ft 119 kts 260°
2026-04-30 01:43 40.04797 -103.78925 16544 ft 126 kts 261°
2026-04-30 01:43 40.04593 -103.80064 16498 ft 131 kts 260°
2026-04-30 01:43 40.04385 -103.81228 16499 ft 132 kts 260°
2026-04-30 01:43 40.04173 -103.82398 16508 ft 133 kts 261°
2026-04-30 01:44 40.03960 -103.83567 16503 ft 134 kts 260°
2026-04-30 01:44 40.03749 -103.84755 16503 ft 134 kts 260°
2026-04-30 01:44 40.03537 -103.85943 16507 ft 135 kts 260°
2026-04-30 01:44 40.03320 -103.87137 16506 ft 135 kts 260°
2026-04-30 01:45 40.03106 -103.88331 16506 ft 136 kts 260°
2026-04-30 01:45 40.02890 -103.89532 16510 ft 136 kts 261°
2026-04-30 01:45 40.02671 -103.90734 16501 ft 136 kts 259°
2026-04-30 01:45 40.02450 -103.91937 16501 ft 137 kts 260°
2026-04-30 01:46 40.02234 -103.93140 16504 ft 136 kts 260°
2026-04-30 01:46 40.02015 -103.94344 16505 ft 136 kts 260°
2026-04-30 01:46 40.01797 -103.95547 16504 ft 137 kts 261°
2026-04-30 01:46 40.01576 -103.96754 16501 ft 137 kts 260°
2026-04-30 01:47 40.01358 -103.97962 16507 ft 137 kts 261°
2026-04-30 01:47 40.01141 -103.99172 16506 ft 137 kts 259°
2026-04-30 01:47 40.00923 -104.00377 16509 ft 137 kts 260°
2026-04-30 01:47 40.00702 -104.01587 16510 ft 137 kts 260°
2026-04-30 01:48 40.00484 -104.02799 16514 ft 137 kts 260°
2026-04-30 01:48 40.00263 -104.04000 16511 ft 136 kts 260°
2026-04-30 01:48 40.00041 -104.05204 16505 ft 137 kts 260°
2026-04-30 01:48 39.99818 -104.06411 16511 ft 136 kts 260°
2026-04-30 01:49 39.99601 -104.07613 16509 ft 137 kts 260°
2026-04-30 01:49 39.99386 -104.08818 16508 ft 137 kts 260°
2026-04-30 01:49 39.99168 -104.10033 16509 ft 137 kts 260°
2026-04-30 01:49 39.98949 -104.11240 16508 ft 137 kts 260°
2026-04-30 01:50 39.98727 -104.12433 16508 ft 137 kts 260°
2026-04-30 01:50 39.98503 -104.13638 16510 ft 137 kts 260°
2026-04-30 01:50 39.98284 -104.14847 16509 ft 137 kts 260°
2026-04-30 01:50 39.98064 -104.16058 16504 ft 138 kts 260°
2026-04-30 01:51 39.97842 -104.17271 16506 ft 138 kts 260°
2026-04-30 01:51 39.97617 -104.18486 16510 ft 137 kts 260°
2026-04-30 01:51 39.97393 -104.19711 16507 ft 138 kts 260°
2026-04-30 01:51 39.97173 -104.20906 16510 ft 137 kts 260°
2026-04-30 01:52 39.96950 -104.22112 16511 ft 137 kts 259°
2026-04-30 01:52 39.96726 -104.23326 16511 ft 137 kts 260°
2026-04-30 01:52 39.96503 -104.24538 16510 ft 138 kts 259°
2026-04-30 01:52 39.96282 -104.25754 16512 ft 137 kts 260°
2026-04-30 01:53 39.96062 -104.26960 16505 ft 138 kts 259°
2026-04-30 01:53 39.95836 -104.28178 16508 ft 137 kts 260°
2026-04-30 01:53 39.95611 -104.29382 16507 ft 137 kts 259°
2026-04-30 01:53 39.95386 -104.30581 16512 ft 136 kts 259°
2026-04-30 01:54 39.95164 -104.31788 16515 ft 137 kts 259°
2026-04-30 01:54 39.94943 -104.32996 16504 ft 138 kts 260°
2026-04-30 01:54 39.94719 -104.34207 16512 ft 137 kts 259°
2026-04-30 01:54 39.94491 -104.35413 16508 ft 137 kts 259°
2026-04-30 01:55 39.94274 -104.36621 16504 ft 137 kts 260°
2026-04-30 01:55 39.94055 -104.37826 16508 ft 137 kts 260°
2026-04-30 01:55 39.93834 -104.39036 16511 ft 137 kts 259°
2026-04-30 01:55 39.93611 -104.40240 16513 ft 137 kts 259°
2026-04-30 01:56 39.93381 -104.41442 16509 ft 137 kts 259°
2026-04-30 01:56 39.93160 -104.42646 16512 ft 137 kts 259°
2026-04-30 01:56 39.92935 -104.43853 16513 ft 137 kts 260°
2026-04-30 01:56 39.92713 -104.45038 16511 ft 137 kts 260°
2026-04-30 01:57 39.92490 -104.46250 16511 ft 137 kts 260°
2026-04-30 01:57 39.92267 -104.47457 16509 ft 137 kts 259°
2026-04-30 01:57 39.92043 -104.48661 16510 ft 137 kts 259°
2026-04-30 01:57 39.91817 -104.49872 16511 ft 137 kts 259°
2026-04-30 01:58 39.91592 -104.51076 16512 ft 137 kts 259°
2026-04-30 01:58 39.91367 -104.52285 16510 ft 137 kts 259°
2026-04-30 01:58 39.91141 -104.53493 16511 ft 137 kts 259°
2026-04-30 01:58 39.90915 -104.54701 16511 ft 137 kts 259°
2026-04-30 01:59 39.90464 -104.57114 16512 ft 137 kts 259°
2026-04-30 01:59 39.90241 -104.58314 16513 ft 137 kts 259°
2026-04-30 01:59 39.90015 -104.59522 16512 ft 137 kts 259°
2026-04-30 02:00 39.89789 -104.60723 16513 ft 137 kts 259°
2026-04-30 02:00 39.89523 -104.61920 16511 ft 139 kts 249°
2026-04-30 02:00 39.89037 -104.63014 16514 ft 140 kts 241°
2026-04-30 02:00 39.88480 -104.64066 16514 ft 141 kts 239°
2026-04-30 02:01 39.87909 -104.65095 16529 ft 140 kts 239°
2026-04-30 02:01 39.87331 -104.66120 16537 ft 140 kts 239°
2026-04-30 02:01 39.86751 -104.67140 16539 ft 140 kts 238°
2026-04-30 02:01 39.86170 -104.68155 16540 ft 140 kts 238°
2026-04-30 02:02 39.85585 -104.69173 16539 ft 140 kts 238°
2026-04-30 02:02 39.84999 -104.70191 16536 ft 141 kts 238°
2026-04-30 02:02 39.84417 -104.71206 16534 ft 141 kts 238°
2026-04-30 02:02 39.83825 -104.72234 16536 ft 141 kts 238°
2026-04-30 02:03 39.83237 -104.73253 16532 ft 141 kts 238°
2026-04-30 02:03 39.82649 -104.74273 16530 ft 141 kts 238°
2026-04-30 02:03 39.82059 -104.75297 16530 ft 141 kts 238°
2026-04-30 02:03 39.81476 -104.76307 16530 ft 142 kts 238°
2026-04-30 02:04 39.80885 -104.77329 16527 ft 142 kts 238°
2026-04-30 02:04 39.80291 -104.78358 16522 ft 142 kts 238°
2026-04-30 02:04 39.79697 -104.79386 16523 ft 142 kts 238°
2026-04-30 02:04 39.79102 -104.80414 16524 ft 143 kts 238°
2026-04-30 02:05 39.78505 -104.81446 16520 ft 143 kts 238°
2026-04-30 02:05 39.77910 -104.82475 16519 ft 143 kts 237°
2026-04-30 02:05 39.77313 -104.83508 16519 ft 143 kts 237°
2026-04-30 02:05 39.76717 -104.84538 16519 ft 143 kts 237°
2026-04-30 02:06 39.76122 -104.85568 16519 ft 142 kts 237°
2026-04-30 02:06 39.75525 -104.86598 16516 ft 143 kts 237°
2026-04-30 02:06 39.74932 -104.87620 16519 ft 142 kts 237°
2026-04-30 02:06 39.74333 -104.88653 16520 ft 142 kts 237°
2026-04-30 02:07 39.73737 -104.89679 16522 ft 142 kts 237°
2026-04-30 02:07 39.73139 -104.90707 16521 ft 142 kts 237°
2026-04-30 02:07 39.72546 -104.91732 16521 ft 142 kts 237°
2026-04-30 02:07 39.71951 -104.92757 16527 ft 142 kts 237°
2026-04-30 02:08 39.71358 -104.93778 16540 ft 141 kts 237°
2026-04-30 02:08 39.70767 -104.94797 16536 ft 142 kts 237°
2026-04-30 02:08 39.70174 -104.95819 16537 ft 142 kts 237°
2026-04-30 02:08 39.69578 -104.96841 16541 ft 142 kts 237°
2026-04-30 02:09 39.68984 -104.97864 16538 ft 142 kts 237°
2026-04-30 02:09 39.68388 -104.98892 16531 ft 142 kts 237°
2026-04-30 02:09 39.67794 -104.99917 16533 ft 142 kts 237°
2026-04-30 02:09 39.67200 -105.00939 16536 ft 142 kts 237°
2026-04-30 02:10 39.66607 -105.01959 16536 ft 142 kts 237°
2026-04-30 02:10 39.66012 -105.02980 16541 ft 142 kts 237°
2026-04-30 02:10 39.65425 -105.03987 16542 ft 142 kts 237°
2026-04-30 02:10 39.64822 -105.05022 16541 ft 142 kts 237°
2026-04-30 02:11 39.64226 -105.06045 16545 ft 142 kts 237°
2026-04-30 02:11 39.63638 -105.07054 16551 ft 142 kts 236°
2026-04-30 02:11 39.63038 -105.08080 16548 ft 143 kts 237°
2026-04-30 02:11 39.62430 -105.09123 16550 ft 143 kts 237°
2026-04-30 02:12 39.62032 -105.09803 16549 ft 143 kts 236°
2026-04-30 02:12 39.61228 -105.11177 16547 ft 143 kts 236°
2026-04-30 02:12 39.60830 -105.11862 16548 ft 143 kts 237°
2026-04-30 02:12 39.60232 -105.12889 16554 ft 143 kts 237°
2026-04-30 02:13 39.59636 -105.13915 16558 ft 142 kts 237°
2026-04-30 02:13 39.58842 -105.15274 16561 ft 142 kts 237°
2026-04-30 02:13 39.58441 -105.15964 16556 ft 142 kts 237°
2026-04-30 02:13 39.57649 -105.17316 16552 ft 142 kts 236°
2026-04-30 02:14 39.57247 -105.18002 16556 ft 142 kts 236°
2026-04-30 02:14 39.56649 -105.19023 16560 ft 142 kts 236°
2026-04-30 02:14 39.56055 -105.20036 16561 ft 141 kts 236°
2026-04-30 02:14 39.55460 -105.21052 16566 ft 141 kts 236°
2026-04-30 02:15 39.54864 -105.22069 16571 ft 141 kts 236°
2026-04-30 02:15 39.54267 -105.23085 16572 ft 142 kts 236°
2026-04-30 02:15 39.53673 -105.24102 16579 ft 142 kts 236°
2026-04-30 02:15 39.53077 -105.25119 16590 ft 142 kts 236°
2026-04-30 02:16 39.52478 -105.26132 16599 ft 142 kts 236°
2026-04-30 02:16 39.51882 -105.27150 16601 ft 142 kts 236°
2026-04-30 02:16 39.51291 -105.28159 16598 ft 142 kts 237°
2026-04-30 02:16 39.50685 -105.29193 16603 ft 142 kts 236°
2026-04-30 02:17 39.50084 -105.30212 16613 ft 142 kts 235°
2026-04-30 02:17 39.49465 -105.31203 16602 ft 143 kts 236°
2026-04-30 02:17 39.48861 -105.32222 16615 ft 141 kts 236°
2026-04-30 02:17 39.48284 -105.33232 16607 ft 137 kts 238°
2026-04-30 02:18 39.47722 -105.34186 16610 ft 128 kts 236°
2026-04-30 02:18 39.47200 -105.35082 16579 ft 125 kts 237°
2026-04-30 02:18 39.46679 -105.35983 16616 ft 126 kts 237°
2026-04-30 02:18 39.46154 -105.36893 16624 ft 125 kts 237°
2026-04-30 02:19 39.45638 -105.37775 16608 ft 120 kts 237°
2026-04-30 02:19 39.45151 -105.38602 16597 ft 110 kts 237°
2026-04-30 02:19 39.44710 -105.39352 16584 ft 99 kts 237°
2026-04-30 02:19 39.44318 -105.40016 16555 ft 86 kts 238°
2026-04-30 02:20 39.43978 -105.40593 16453 ft 79 kts 238°
2026-04-30 02:20 39.43628 -105.41196 16209 ft 86 kts 238°
2026-04-30 02:20 39.43287 -105.41773 16077 ft 80 kts 238°
2026-04-30 02:20 39.42937 -105.42373 15818 ft 86 kts 237°
2026-04-30 02:21 39.42584 -105.42968 15675 ft 81 kts 238°
2026-04-30 02:21 39.42233 -105.43565 15443 ft 86 kts 238°
2026-04-30 02:21 39.41879 -105.44164 15285 ft 82 kts 238°
2026-04-30 02:21 39.41524 -105.44765 15078 ft 85 kts 238°
2026-04-30 02:22 39.41166 -105.45370 14901 ft 84 kts 238°
2026-04-30 02:22 39.40809 -105.45975 14707 ft 85 kts 238°
2026-04-30 02:22 39.40451 -105.46580 14526 ft 84 kts 238°
2026-04-30 02:22 39.40139 -105.47109 14340 ft 86 kts 237°
2026-04-30 02:23 39.39780 -105.47722 14164 ft 85 kts 237°
2026-04-30 02:23 39.39659 -105.47923 14091 ft 84 kts 238°